Location: Sternwarte ZA, Rosenfeld-Brittheim
(48.2889°N, 8.6789°E)
Time: 08:41:40
(UTC+02:00)

ISS - Pass Details

Date: 21 July 2018
Orbit: 402 x 408 km, 51.6° (Epoch: 16 July)

Event Time Altitude Azimuth Distance (km) Brightness Sun altitude
Rises 01:21:07 0° 278° (W) 2,325 0.2 -21.1°
Reaches altitude 10° 01:23:15 10° 285° (WNW) 1,466 -0.8 -21.2°
Maximum altitude 01:26:25 44° 359° (N) 575 -2.7 -21.2°
Drops below altitude 10° 01:29:36 10° 73° (ENE) 1,469 -0.8 -21.2°
Sets 01:31:45 0° 80° (E) 2,330 0.2 -21.2°
